Regional Weather Roundup
Issued by NWS

Home | Current Version | Previous Version | Graphics & Text | Print | Product List | Glossary On
Versions: 1 2 3 4 5 6 7 8 9 10 11 12 13 14 15 16 17 18 19 20 21 22 23 24 25 26 27 28 29 30 31 32 33 34 35 36 37 38 39 40 41 42 43 44 45 46 47 48 49 50
000
ASUS45 KABQ 181201
RWRNM
NEW MEXICO REGIONAL WEATHER ROUNDUP
NATIONAL WEATHER SERVICE ALBUQUERQUE NM
500 AM MST SAT NOV 18 2017

NOTE: "FAIR" MEANS FEW OR NO CLOUDS BELOW 12,000 FEET AGL WITH NO
       SIGNIFICANT WEATHER OR OBSTRUCTIONS TO VISION.

      THIS PRODUCT IS RELEASED AS TWO VERSIONS.  ONE VERSION NEAR
      THE TOP OF THE HOUR CONTAINING PRELIMINARY DATA FROM ALBUQUERQUE
      AND OTHER STATIONS.  A FINAL VERSION WITH ADDITIONAL DATA IS
      ISSUED ABOUT 10 MINUTES AFTER THE HOUR.

NMZ501-503-504-510>518-181300-
NORTHWEST PLATEAU/NORTHCENTRAL MOUNTAINS

CITY           SKY/WX    TMP DP  RH WIND       PRES   REMARKS
FARMINGTON     FAIR      32  10  40 W21G30    30.21F WCI  20
6HR MIN TEMP:  29; 6HR MAX TEMP:  38; 6HR PCP: TRACE;

LOS ALAMOS     FAIR      33   8  34 N16G32    30.14R WCI  23
SANTA FE       FAIR      35  15  44 N18G35    30.16R WCI  24
6HR MIN TEMP:  35; 6HR MAX TEMP:  50;

TAOS           FAIR      31   9  39 N18G24    30.20R WCI  19
ANGEL FIRE     FAIR      26   9  49 NE15      30.15R WCI  14

$$
NMZ402-403-502-505>509-181300-
WESTCENTRAL MOUNTAINS/SOUTHWEST MOUNTAINS

CITY           SKY/WX    TMP DP  RH WIND       PRES   REMARKS
GALLUP         FAIR      25  20  81 CALM      30.29R
6HR MIN TEMP:  25; 6HR MAX TEMP:  45;

GRANTS         FAIR      29  13  51 N8        30.29R WCI  21
SILVER CITY    FAIR      43  32  67 NW10      30.15S

$$
NMZ407-409-411-412-181300-
SOUTHERN DESERTS

CITY           SKY/WX    TMP DP  RH WIND       PRES   REMARKS
DEMING         FAIR      43  28  55 CALM      30.14R
6HR MIN TEMP:  43; 6HR MAX TEMP:  61;

LAS CRUCES     FAIR      54  32  42 N7        30.13R
HOLLOMAN AFB   FAIR      51  25  36 N10       30.12R
ALAMOGORDO     FAIR      55  27  33 N12       30.10R
T OR C         FAIR      57  31  37 NW23G35   30.13R
6HR MIN TEMP:  55; 6HR MAX TEMP:  62;


$$
NMZ519>523-181300-
CENTRAL VALLEYS/CENTRAL HIGHLANDS

CITY           SKY/WX    TMP DP  RH WIND       PRES   REMARKS
ALBUQUERQUE    FAIR      40  14  34 N17       30.24R WCI  31
6HR MIN TEMP:  40; 6HR MAX TEMP:  55;

MORIARTY ARPT  FAIR      37   7  28 W18G25    30.17R WCI  27
6HR MIN TEMP:  37; 6HR MAX TEMP:  54;

CLINES CORNERS NOT AVBL
BELEN          FAIR      37  23  57 N6        30.23R WCI  32
6HR MIN TEMP:  35; 6HR MAX TEMP:  57;

SOCORRO        FAIR      45  29  53 N14       30.17R
6HR MIN TEMP:  45; 6HR MAX TEMP:  64;


$$
NMZ524>526-539-540-181300-
SOUTHCENTRAL MOUNTAINS

CITY           SKY/WX    TMP DP  RH WIND       PRES   REMARKS
RUIDOSO        FAIR      45  30  57 W18G38    30.13R

$$
NMZ527>531-181300-
NORTHEAST HIGHLANDS/NORTHEAST PLAINS

CITY           SKY/WX    TMP DP  RH WIND       PRES   REMARKS
LAS VEGAS      FAIR      35  11  36 N21G31    30.04R WCI  24
6HR MIN TEMP:  33; 6HR MAX TEMP:  49;

RATON          MIX PCPN  32  27  81 NE23G30   30.09R WCI  19
6HR MIN TEMP:  32; 6HR MAX TEMP:  54; 6HR PCP: TRACE;

CLAYTON        CLOUDY    36  30  79 N28G38    30.07R WCI  23
6HR MIN TEMP:  35; 6HR MAX TEMP:  56; 6HR PCP: TRACE;


$$
NMZ532>537-181300-
EASTCENTRAL PLAINS

CITY           SKY/WX    TMP DP  RH WIND       PRES   REMARKS
SANTA ROSA     FAIR      47  22  36 NW21G26   30.04R
TUCUMCARI      FAIR      45  32  60 NE18G24   30.05R
6HR MIN TEMP:  44; 6HR MAX TEMP:  63;

CANNON AFB     FAIR      44  33  66 N26G33    30.04R
6HR MIN TEMP:  44; 6HR MAX TEMP:  61;

CLOVIS AIRPORT FAIR      43  32  65 N25G32    30.04R

$$
NMZ028-029-538-181300-
SOUTHEAST PLAINS

CITY           SKY/WX    TMP DP  RH WIND       PRES   REMARKS
ROSWELL        FAIR      62  33  33 NW22G33   29.99R
6HR MIN TEMP:  55; 6HR MAX TEMP:  64;

ARTESIA        FAIR      61  28  29 NW20      29.98R
CARLSBAD       FAIR      64  31  28 W17       29.95R
6HR MIN TEMP:  62; 6HR MAX TEMP:  73;

HOBBS          FAIR      59  27  29 N15       29.97R


$$



USA.gov is the U.S. government's official web portal to all federal, state and local government web resources and services.